• en France
  • Liste des pays
  • À 7 jours
  • Température de l'eau
  • Carte satellitaire
  • Carte météo
  • Widgets météo
  • user-avatar
    Se connecter

    Météo par heure à San Miguel de Tucumán

    Ce jour, 16 Novembre, Vendredi

    Heure Température Précipitation Vent Pression Humidité
    00:00 +25°C° 0 mm 2 m/s 717 mmHg 62%
    01:00 +25°C° 0 mm 1 m/s 717 mmHg 62%
    02:00 +25°C° 0 mm 1 m/s 717 mmHg 62%
    03:00 +24°C° 0 mm 1 m/s 718 mmHg 61%
    04:00 +24°C° 0 mm 1 m/s 718 mmHg 61%
    05:00 +23°C° 0 mm 1 m/s 718 mmHg 60%
    06:00 +25°C° 0 mm 1 m/s 718 mmHg 58%
    07:00 +27°C° 0 mm 1 m/s 719 mmHg 55%
    08:00 +28°C° 0 mm 1 m/s 719 mmHg 53%
    09:00 +30°C° 0 mm 2 m/s 719 mmHg 50%
    10:00 +33°C° 0 mm 3 m/s 719 mmHg 46%
    11:00 +34°C° 0 mm 3 m/s 719 mmHg 43%
    12:00 +34°C° 0 mm 3 m/s 718 mmHg 44%
    13:00 +35°C° 0 mm 4 m/s 717 mmHg 45%
    14:00 +35°C° 0 mm 4 m/s 716 mmHg 45%
    15:00 +34°C° 0 mm 4 m/s 716 mmHg 48%
    16:00 +33°C° 0 mm 3 m/s 715 mmHg 51%
    17:00 +33°C° 0 mm 3 m/s 714 mmHg 53%
    18:00 +31°C° 0 mm 3 m/s 714 mmHg 57%
    19:00 +29°C° 0 mm 2 m/s 715 mmHg 61%
    20:00 +28°C° 0 mm 2 m/s 715 mmHg 66%
    21:00 +28°C° 0 mm 2 m/s 715 mmHg 68%
    22:00 +27°C° 0 mm 2 m/s 715 mmHg 70%
    23:00 +27°C° 0 mm 2 m/s 715 mmHg 72%

    Demain, 17 Novembre, Samedi

    Heure Température Précipitation Vent Pression Humidité
    00:00 +27°C° 0 mm 2 m/s 715 mmHg 73%
    01:00 +26°C° 0 mm 2 m/s 714 mmHg 74%
    02:00 +26°C° 0 mm 2 m/s 713 mmHg 75%
    03:00 +26°C° 0 mm 2 m/s 713 mmHg 75%
    04:00 +25°C° 0 mm 1 m/s 713 mmHg 75%
    05:00 +25°C° 0 mm 1 m/s 713 mmHg 75%
    06:00 +27°C° 0 mm 1 m/s 714 mmHg 69%
    07:00 +28°C° 0 mm 1 m/s 714 mmHg 64%
    08:00 +30°C° 0 mm 1 m/s 715 mmHg 58%
    09:00 +32°C° 0 mm 1 m/s 715 mmHg 54%
    10:00 +34°C° 0 mm 1 m/s 715 mmHg 49%
    11:00 +37°C° 0 mm 2 m/s 715 mmHg 44%
    12:00 +37°C° 0 mm 2 m/s 715 mmHg 40%
    13:00 +38°C° 0 mm 2 m/s 714 mmHg 36%
    14:00 +39°C° 0 mm 3 m/s 714 mmHg 32%
    15:00 +38°C° 0 mm 3 m/s 714 mmHg 34%
    16:00 +38°C° 0 mm 3 m/s 714 mmHg 36%
    17:00 +37°C° 0 mm 3 m/s 714 mmHg 37%
    18:00 +35°C° 1.4 mm 2 m/s 715 mmHg 47%
    19:00 +31°C° 1.4 mm 2 m/s 715 mmHg 57%
    20:00 +29°C° 1.4 mm 2 m/s 716 mmHg 66%
    21:00 +28°C° 3.6 mm 2 m/s 718 mmHg 72%
    22:00 +26°C° 3.6 mm 2 m/s 719 mmHg 78%
    23:00 +25°C° 3.6 mm 3 m/s 720 mmHg 84%

    Après-demain, 18 Novembre, Dimanche

    Heure Température Précipitation Vent Pression Humidité
    00:00 +25°C° 1 mm 3 m/s 720 mmHg 84%
    01:00 +24°C° 1 mm 3 m/s 720 mmHg 84%
    02:00 +22°C° 1 mm 4 m/s 720 mmHg 85%
    03:00 +21°C° 0 mm 3 m/s 721 mmHg 83%
    04:00 +20°C° 0 mm 3 m/s 721 mmHg 81%
    05:00 +20°C° 0 mm 2 m/s 722 mmHg 79%
    06:00 +20°C° 0 mm 2 m/s 723 mmHg 73%
    07:00 +20°C° 0 mm 2 m/s 724 mmHg 67%
    08:00 +20°C° 0 mm 2 m/s 724 mmHg 61%
    09:00 +23°C° 0 mm 2 m/s 725 mmHg 52%
    10:00 +25°C° 0 mm 2 m/s 725 mmHg 44%
    11:00 +27°C° 0 mm 2 m/s 725 mmHg 35%
    12:00 +27°C° 0 mm 2 m/s 724 mmHg 33%
    13:00 +28°C° 0 mm 2 m/s 723 mmHg 32%
    14:00 +29°C° 0 mm 3 m/s 722 mmHg 30%
    15:00 +28°C° 0 mm 3 m/s 722 mmHg 32%
    16:00 +28°C° 0 mm 3 m/s 721 mmHg 34%
    17:00 +27°C° 0 mm 3 m/s 721 mmHg 36%
    18:00 +26°C° 0 mm 3 m/s 721 mmHg 40%
    19:00 +24°C° 0 mm 2 m/s 721 mmHg 45%
    20:00 +21°C° 0 mm 2 m/s 722 mmHg 49%
    21:00 +21°C° 0 mm 2 m/s 722 mmHg 50%
    22:00 +21°C° 0 mm 2 m/s 722 mmHg 50%
    23:00 +21°C° 0 mm 2 m/s 722 mmHg 51%

    19 Novembre, Lundi

    Heure Température Précipitation Vent Pression Humidité
    00:00 +20°C° 0 mm 2 m/s 721 mmHg 54%
    01:00 +20°C° 0 mm 2 m/s 720 mmHg 56%
    02:00 +21°C° 0 mm 1 m/s 719 mmHg 58%
    03:00 +20°C° 0 mm 1 m/s 719 mmHg 60%
    04:00 +20°C° 0 mm 1 m/s 719 mmHg 62%
    05:00 +19°C° 0 mm 1 m/s 719 mmHg 64%
    06:00 +21°C° 0 mm 1 m/s 720 mmHg 60%
    07:00 +23°C° 0 mm 2 m/s 720 mmHg 57%
    08:00 +25°C° 0 mm 3 m/s 720 mmHg 53%
    09:00 +26°C° 0 mm 3 m/s 720 mmHg 50%
    10:00 +28°C° 0 mm 3 m/s 720 mmHg 46%
    11:00 +30°C° 0 mm 4 m/s 719 mmHg 42%
    12:00 +32°C° 0 mm 4 m/s 719 mmHg 40%
    13:00 +33°C° 0 mm 4 m/s 718 mmHg 39%
    14:00 +34°C° 0 mm 4 m/s 717 mmHg 38%
    15:00 +34°C° 0 mm 4 m/s 717 mmHg 39%
    16:00 +33°C° 0 mm 4 m/s 716 mmHg 41%
    17:00 +33°C° 0 mm 4 m/s 716 mmHg 42%
    18:00 +30°C° 0 mm 3 m/s 717 mmHg 48%
    19:00 +28°C° 0 mm 3 m/s 717 mmHg 54%
    20:00 +26°C° 0 mm 2 m/s 718 mmHg 59%
    21:00 +25°C° 0 mm 2 m/s 718 mmHg 60%
    22:00 +25°C° 0 mm 2 m/s 719 mmHg 61%
    23:00 +24°C° 0 mm 2 m/s 719 mmHg 62%

    20 Novembre, Mardi

    Heure Température Précipitation Vent Pression Humidité
    00:00 +24°C° 0 mm 2 m/s 719 mmHg 62%
    01:00 +24°C° 0 mm 2 m/s 718 mmHg 62%
    02:00 +23°C° 0 mm 2 m/s 718 mmHg 63%
    03:00 +23°C° 0 mm 2 m/s 718 mmHg 63%
    04:00 +21°C° 0 mm 2 m/s 718 mmHg 64%
    05:00 +22°C° 0 mm 1 m/s 718 mmHg 64%
    06:00 +24°C° 0 mm 2 m/s 719 mmHg 60%
    07:00 +25°C° 0 mm 2 m/s 720 mmHg 55%
    08:00 +27°C° 0 mm 2 m/s 720 mmHg 51%
    09:00 +29°C° 0 mm 2 m/s 720 mmHg 47%
    10:00 +31°C° 0 mm 2 m/s 720 mmHg 43%
    11:00 +34°C° 0 mm 3 m/s 720 mmHg 40%
    12:00 +34°C° 0 mm 3 m/s 720 mmHg 38%
    13:00 +35°C° 0 mm 3 m/s 719 mmHg 37%
    14:00 +35°C° 0 mm 3 m/s 718 mmHg 36%
    15:00 +35°C° 0 mm 3 m/s 718 mmHg 36%
    16:00 +35°C° 0 mm 3 m/s 718 mmHg 37%
    17:00 +34°C° 0 mm 3 m/s 717 mmHg 38%
    18:00 +31°C° 0 mm 2 m/s 718 mmHg 42%
    19:00 +29°C° 0 mm 2 m/s 718 mmHg 47%
    20:00 +27°C° 0 mm 2 m/s 719 mmHg 52%
    21:00 +26°C° 0 mm 2 m/s 719 mmHg 53%
    22:00 +26°C° 0 mm 1 m/s 719 mmHg 54%
    23:00 +25°C° 0 mm 1 m/s 719 mmHg 56%

    21 Novembre, Mercredi

    Heure Température Précipitation Vent Pression Humidité
    00:00 +25°C° 0 mm 1 m/s 719 mmHg 56%
    01:00 +25°C° 0 mm 1 m/s 718 mmHg 56%
    02:00 +24°C° 0 mm 1 m/s 718 mmHg 56%
    03:00 +24°C° 0 mm 1 m/s 717 mmHg 57%
    04:00 +24°C° 0 mm 1 m/s 717 mmHg 58%
    05:00 +23°C° 0 mm 1 m/s 717 mmHg 59%
    06:00 +25°C° 0 mm 2 m/s 718 mmHg 55%
    07:00 +27°C° 0 mm 2 m/s 718 mmHg 51%
    08:00 +29°C° 0 mm 2 m/s 718 mmHg 47%
    09:00 +31°C° 0 mm 3 m/s 718 mmHg 43%
    10:00 +34°C° 0 mm 3 m/s 717 mmHg 39%
    11:00 +36°C° 0 mm 4 m/s 717 mmHg 34%
    12:00 +37°C° 0 mm 4 m/s 716 mmHg 33%
    13:00 +38°C° 0 mm 4 m/s 715 mmHg 32%
    14:00 +38°C° 0 mm 4 m/s 714 mmHg 31%
    15:00 +38°C° 0 mm 4 m/s 714 mmHg 33%
    16:00 +37°C° 0 mm 4 m/s 714 mmHg 35%
    17:00 +37°C° 0 mm 4 m/s 714 mmHg 37%
    18:00 +35°C° 0 mm 4 m/s 714 mmHg 43%
    19:00 +33°C° 0 mm 3 m/s 715 mmHg 48%
    20:00 +30°C° 0 mm 3 m/s 715 mmHg 54%
    21:00 +29°C° 0 mm 2 m/s 715 mmHg 56%
    22:00 +29°C° 0 mm 2 m/s 716 mmHg 57%
    23:00 +28°C° 0 mm 2 m/s 716 mmHg 59%
    Voir plus